Regional Weather Roundup
Issued by NWS

Home | Current Version | Previous Version | Graphics & Text | Print | Product List | Glossary Off
Versions: 1 2 3 4 5 6 7 8 9 10 11 12 13 14 15 16 17 18 19 20 21 22 23 24 25 26 27 28 29 30 31 32 33 34 35 36 37 38 39 40 41 42 43 44 45 46 47 48 49 50

000
ASUS43 KTOP 041308
RWRKS

WEATHER ROUNDUP FOR KANSAS
NATIONAL WEATHER SERVICE GOODLAND KS
800 AM CDT MON MAY 04 2015

NOTE:  "FAIR" INDICATES FEW OR NO CLOUDS BELOW 12,000 FEET WITH NO
SIGNIFICANT WEATHER AND/OR OBSTRUCTIONS TO VISIBILITY.

KSZ001>006-013>018-027>032-041>047-041400-
NORTHWEST KANSAS

CITY           SKY/WX    TMP DP  RH WIND       PRES   REMARKS
GOODLAND       CLOUDY    51  45  79 N7        30.08R
HAYS           CLOUDY    57  45  62 N13       29.96F
HILL CITY      CLOUDY    57  50  77 N7        30.02S
RUSSELL        CLOUDY    60  49  66 NE14      29.95R
$$

KSZ061>065-074>080-084>089-041400-
SOUTHWEST KANSAS

CITY           SKY/WX    TMP DP  RH WIND       PRES   REMARKS
DODGE CITY     CLOUDY    61  56  83 E7        30.02R
ELKHART          N/A     57  49  75 W10         N/A
GARDEN CITY    CLOUDY    58  54  86 NE12      29.98R
GREAT BEND     CLOUDY    63  50  63 E5        30.00R
LIBERAL        CLOUDY    61  54  77 SE6       30.00R
PRATT          CLOUDY    61  55  82 SE13      30.00S
$$

KSZ066>073-081>083-090>101-041400-
SOUTHEAST KANSAS

CITY           SKY/WX    TMP DP  RH WIND       PRES   REMARKS
CHANUTE        MOSUNNY   65  57  75 S10       30.04R
COFFEYVILLE    MOSUNNY   65  57  75 S7        30.04R
HUTCHINSON     PTSUNNY   64  58  80 S6        30.00R
MEDICINE LODGE   N/A     64  58  80 SE6       30.00R
NEWTON         CLOUDY    63  54  72 S8        30.03R
PARSONS        MOSUNNY   65  58  78 S7        30.06R
WICHITA INTL   PTSUNNY   62  56  80 S8        30.00R
WICHITA JABRA  PTSUNNY   65  56  72 S14       30.00R
WICHITA MCCONL PTSUNNY   65  57  74 S14       30.00R
WINFIELD       PTSUNNY   64  58  80 S8        30.03R
$$

KSZ007>012-019>026-033>040-048>060-102>105-041400-
NORTHEAST KANSAS

CITY           SKY/WX    TMP DP  RH WIND       PRES   REMARKS
CONCORDIA      PTSUNNY   63  56  78 N13       29.93S
EMPORIA        MOSUNNY   64  56  75 CALM      30.01R
LAWRENCE       LGT RAIN  62  57  83 E8        30.00R
MANHATTAN      MOSUNNY   64  57  78 SW10      29.95R
MARYSVILLE     PTSUNNY   63  55  77 NE7       29.99R
OLATHE IND     LGT RAIN  62  58  86 SW7       30.04R
OLATHE EXE     LGT RAIN  63  58  83 SW5       30.02R
SALINA         CLOUDY    64  56  75 S8        29.97R
TOPEKA BILLARD LGT RAIN  63  58  83 SE3       30.00R
TOPEKA FORBES  CLOUDY    63  58  83 S9        29.99R
$$



USA.gov is the U.S. government's official web portal to all federal, state and local government web resources and services.